Location: Jaite
(41.2884°N, 81.5737°W)
Time: 00:40:26
(UTC+00:00)

Cosmos 2297 Rocket - Pass Details

Date: 18 January 2020
Orbit: 838 x 845 km, 71.0° (Epoch: 28 February)

Event Time Altitude Azimuth Distance (km) Brightness Sun altitude
Exits shadow 11:10:45 31° 275° (W) 1,448 2.8 -18.1°
Maximum altitude 11:11:42 33° 256° (WSW) 1,394 2.9 -18.0°
Drops below altitude 10° 11:16:40 10° 194° (SSW) 2,457 4.6 -17.0°
Sets 11:19:19 0° 185° (S) 3,387 5.4 -16.6°
